Location: ??????
(55.8274°N, 37.9338°E)
Time: 12:26:40
(UTC+00:00)

Cosmos 1975 - Pass Details

Date: 14 April 2024
Orbit: 514 x 534 km, 82.5° (Epoch: 17 May)

Event Time Altitude Azimuth Distance (km) Brightness Sun altitude
Rises 01:17:33 0° 345° (NNW) 2,650 6.5 -9.4°
Reaches altitude 10° 01:19:43 10° 341° (NNW) 1,758 5.6 -9.1°
Maximum altitude 01:23:29 54° 263° (W) 635 2.8 -8.7°
Drops below altitude 10° 01:27:14 10° 186° (S) 1,752 5.0 -8.2°
Sets 01:29:24 0° 182° (S) 2,638 6.0 -7.9°
